Time,TemperatureF,DewpointF,PressureIn,WindDirection,WindDirectionDegrees,WindSpeedMPH,WindSpeedGustMPH,Humidity,HourlyPrecipIn,Conditions,Clouds,dailyrainin,SolarRadiationWatts/m^2,SoftwareType,DateUTC
2013-02-06 00:01:00,72.0,58.0,-100.00,East,92,9.0,21.0,61,0.00,,,0.00,0.000000,,2013-02-06 10:01:00,
2013-02-06 00:11:00,72.0,58.0,-100.00,East,92,9.0,21.0,61,0.00,,,0.00,0.000000,,2013-02-06 10:11:00,
2013-02-06 00:21:00,72.0,58.0,-100.00,East,92,9.0,21.0,61,0.00,,,0.00,0.000000,,2013-02-06 10:21:00,
2013-02-06 00:42:00,71.0,58.0,-100.00,ESE,106,12.0,22.0,64,0.00,,,0.00,0.000000,,2013-02-06 10:42:00,
2013-02-06 00:52:00,71.0,58.0,-100.00,ESE,106,12.0,22.0,64,0.00,,,0.00,0.000000,,2013-02-06 10:52:00,
2013-02-06 01:01:00,71.0,58.0,-100.00,ESE,106,12.0,22.0,64,0.00,,,0.00,0.000000,,2013-02-06 11:01:00,
2013-02-06 01:11:00,71.0,58.0,-100.00,ESE,106,12.0,22.0,64,0.00,,,0.00,0.000000,,2013-02-06 11:11:00,
2013-02-06 01:21:00,71.0,58.0,-100.00,ESE,106,12.0,22.0,64,0.00,,,0.00,0.000000,,2013-02-06 11:21:00,
2013-02-06 01:42:00,71.0,58.0,-100.00,East,94,14.0,24.0,64,0.00,,,0.00,0.000000,,2013-02-06 11:42:00,
2013-02-06 01:53:00,71.0,58.0,-100.00,East,94,14.0,24.0,64,0.00,,,0.00,0.000000,,2013-02-06 11:53:00,
2013-02-06 02:01:00,71.0,58.0,-100.00,East,94,14.0,24.0,64,0.00,,,0.00,0.000000,,2013-02-06 12:01:00,
2013-02-06 02:12:00,71.0,58.0,-100.00,East,94,14.0,24.0,64,0.00,,,0.00,0.000000,,2013-02-06 12:12:00,
2013-02-06 02:21:00,71.0,58.0,-100.00,East,94,14.0,24.0,64,0.00,,,0.00,0.000000,,2013-02-06 12:21:00,
2013-02-06 02:42:00,71.0,59.0,-100.00,ESE,103,12.0,22.0,65,0.00,,,0.00,0.000000,,2013-02-06 12:42:00,
2013-02-06 02:52:00,71.0,59.0,-100.00,ESE,103,12.0,22.0,65,0.00,,,0.00,0.000000,,2013-02-06 12:52:00,
2013-02-06 03:01:00,71.0,59.0,-100.00,ESE,103,12.0,22.0,65,0.00,,,0.00,0.000000,,2013-02-06 13:01:00,
2013-02-06 03:11:00,71.0,59.0,-100.00,ESE,103,12.0,22.0,65,0.00,,,0.00,0.000000,,2013-02-06 13:11:00,
2013-02-06 03:21:00,71.0,59.0,-100.00,ESE,103,12.0,22.0,65,0.00,,,0.00,0.000000,,2013-02-06 13:21:00,
2013-02-06 03:42:00,71.0,57.0,-100.00,East,91,12.0,24.0,61,0.00,,,0.00,0.000000,,2013-02-06 13:42:00,
2013-02-06 03:52:00,71.0,57.0,-100.00,East,91,12.0,24.0,61,0.00,,,0.00,0.000000,,2013-02-06 13:52:00,
2013-02-06 04:01:00,71.0,57.0,-100.00,East,91,12.0,24.0,61,0.00,,,0.00,0.000000,,2013-02-06 14:01:00,
2013-02-06 04:11:00,71.0,57.0,-100.00,East,91,12.0,24.0,61,0.00,,,0.00,0.000000,,2013-02-06 14:11:00,
2013-02-06 04:21:00,71.0,57.0,-100.00,East,91,12.0,24.0,61,0.00,,,0.00,0.000000,,2013-02-06 14:21:00,
2013-02-06 04:42:00,72.0,59.0,-100.00,East,92,11.0,20.0,63,0.00,,,0.00,0.000000,,2013-02-06 14:42:00,
2013-02-06 04:52:00,72.0,59.0,-100.00,East,92,11.0,20.0,63,0.00,,,0.00,0.000000,,2013-02-06 14:52:00,
2013-02-06 05:01:00,72.0,59.0,-100.00,East,92,11.0,20.0,63,0.00,,,0.00,0.000000,,2013-02-06 15:01:00,
2013-02-06 05:11:00,72.0,59.0,-100.00,East,92,11.0,20.0,63,0.00,,,0.00,0.000000,,2013-02-06 15:11:00,
2013-02-06 05:21:00,72.0,59.0,-100.00,East,92,11.0,20.0,63,0.00,,,0.00,0.000000,,2013-02-06 15:21:00,
2013-02-06 05:42:00,72.0,58.0,-100.00,East,86,12.0,21.0,61,0.00,,,0.00,0.000000,,2013-02-06 15:42:00,
2013-02-06 05:52:00,72.0,58.0,-100.00,East,86,12.0,21.0,61,0.00,,,0.00,0.000000,,2013-02-06 15:52:00,
2013-02-06 06:01:00,72.0,58.0,-100.00,East,86,12.0,21.0,61,0.00,,,0.00,0.000000,,2013-02-06 16:01:00,
2013-02-06 06:11:00,72.0,58.0,-100.00,East,86,12.0,21.0,61,0.00,,,0.00,0.000000,,2013-02-06 16:11:00,
2013-02-06 06:21:00,72.0,58.0,-100.00,East,86,12.0,21.0,61,0.00,,,0.00,0.000000,,2013-02-06 16:21:00,
2013-02-06 06:42:00,72.0,58.0,-100.00,ENE,76,10.0,20.0,61,0.00,,,0.00,0.000000,,2013-02-06 16:42:00,
2013-02-06 06:52:00,72.0,58.0,-100.00,ENE,76,10.0,20.0,61,0.00,,,0.00,0.000000,,2013-02-06 16:52:00,
2013-02-06 07:01:00,72.0,58.0,-100.00,ENE,76,10.0,20.0,61,0.00,,,0.00,0.000000,,2013-02-06 17:01:00,
2013-02-06 07:11:00,72.0,58.0,-100.00,ENE,76,10.0,20.0,61,0.00,,,0.00,0.000000,,2013-02-06 17:11:00,
2013-02-06 07:21:00,72.0,58.0,-100.00,ENE,76,10.0,20.0,61,0.00,,,0.00,0.000000,,2013-02-06 17:21:00,
2013-02-06 07:42:00,71.0,57.0,-100.00,ESE,102,9.0,23.0,61,0.00,,,0.00,0.000000,,2013-02-06 17:42:00,
2013-02-06 07:52:00,71.0,57.0,-100.00,ESE,102,9.0,23.0,61,0.00,,,0.00,0.000000,,2013-02-06 17:52:00,
2013-02-06 08:01:00,71.0,57.0,-100.00,ESE,102,9.0,23.0,61,0.00,,,0.00,0.000000,,2013-02-06 18:01:00,
2013-02-06 08:11:00,71.0,57.0,-100.00,ESE,102,9.0,23.0,61,0.00,,,0.00,0.000000,,2013-02-06 18:11:00,
2013-02-06 08:22:00,71.0,57.0,-100.00,ESE,102,9.0,23.0,61,0.00,,,0.00,0.000000,,2013-02-06 18:22:00,
2013-02-06 08:42:00,73.0,57.0,-100.00,East,100,9.0,23.0,57,0.00,,,-99.99,89.000000,,2013-02-06 18:42:00,
2013-02-06 08:52:00,73.0,57.0,-100.00,East,100,9.0,23.0,57,0.00,,,-99.99,89.000000,,2013-02-06 18:52:00,
2013-02-06 09:01:00,73.0,57.0,-100.00,East,100,9.0,23.0,57,0.00,,,-99.99,89.000000,,2013-02-06 19:01:00,
2013-02-06 09:11:00,73.0,57.0,-100.00,East,100,9.0,23.0,57,0.00,,,-99.99,89.000000,,2013-02-06 19:11:00,
2013-02-06 09:21:00,73.0,57.0,-100.00,East,100,9.0,23.0,57,0.00,,,-99.99,89.000000,,2013-02-06 19:21:00,
2013-02-06 09:42:00,75.0,58.0,-100.00,East,99,14.0,28.0,55,0.00,,,0.00,364.000000,,2013-02-06 19:42:00,
2013-02-06 09:52:00,75.0,58.0,-100.00,East,99,14.0,28.0,55,0.00,,,0.00,364.000000,,2013-02-06 19:52:00,
2013-02-06 10:01:00,75.0,58.0,-100.00,East,99,14.0,28.0,55,0.00,,,0.00,364.000000,,2013-02-06 20:01:00,
2013-02-06 10:11:00,75.0,58.0,-100.00,East,99,14.0,28.0,55,0.00,,,0.00,364.000000,,2013-02-06 20:11:00,
2013-02-06 10:21:00,75.0,58.0,-100.00,East,99,14.0,28.0,55,0.00,,,0.00,364.000000,,2013-02-06 20:21:00,
2013-02-06 10:42:00,77.0,51.0,-100.00,ENE,77,14.0,25.0,40,0.00,,,0.00,461.000000,,2013-02-06 20:42:00,
2013-02-06 10:52:00,77.0,51.0,-100.00,ENE,77,14.0,25.0,40,0.00,,,0.00,461.000000,,2013-02-06 20:52:00,
2013-02-06 11:01:00,77.0,51.0,-100.00,ENE,77,14.0,25.0,40,0.00,,,0.00,461.000000,,2013-02-06 21:01:00,
2013-02-06 11:11:00,77.0,51.0,-100.00,ENE,77,14.0,25.0,40,0.00,,,0.00,461.000000,,2013-02-06 21:11:00,
2013-02-06 11:21:00,77.0,51.0,-100.00,ENE,77,14.0,25.0,40,0.00,,,0.00,461.000000,,2013-02-06 21:21:00,
2013-02-06 11:42:00,79.0,62.0,-100.00,NNW,341,8.0,20.0,56,0.00,,,0.00,760.000000,,2013-02-06 21:42:00,
2013-02-06 11:52:00,79.0,62.0,-100.00,NNW,341,8.0,20.0,56,0.00,,,0.00,760.000000,,2013-02-06 21:52:00,
2013-02-06 12:01:00,79.0,62.0,-100.00,NNW,341,8.0,20.0,56,0.00,,,0.00,760.000000,,2013-02-06 22:01:00,
2013-02-06 12:11:00,79.0,62.0,-100.00,NNW,341,8.0,20.0,56,0.00,,,0.00,760.000000,,2013-02-06 22:11:00,
2013-02-06 12:21:00,79.0,62.0,-100.00,NNW,341,8.0,20.0,56,0.00,,,0.00,760.000000,,2013-02-06 22:21:00,
2013-02-06 12:42:00,78.0,59.0,-100.00,West,274,5.0,11.0,52,0.00,,,0.00,625.000000,,2013-02-06 22:42:00,
2013-02-06 12:52:00,78.0,59.0,-100.00,West,274,5.0,11.0,52,0.00,,,0.00,625.000000,,2013-02-06 22:52:00,
2013-02-06 13:01:00,78.0,59.0,-100.00,West,274,5.0,11.0,52,0.00,,,0.00,625.000000,,2013-02-06 23:01:00,
2013-02-06 13:11:00,78.0,59.0,-100.00,West,274,5.0,11.0,52,0.00,,,0.00,625.000000,,2013-02-06 23:11:00,
2013-02-06 13:21:00,78.0,59.0,-100.00,West,274,5.0,11.0,52,0.00,,,0.00,625.000000,,2013-02-06 23:21:00,
2013-02-06 13:42:00,79.0,61.0,-100.00,West,263,6.0,11.0,54,0.00,,,0.00,883.000000,,2013-02-06 23:42:00,
2013-02-06 13:52:00,79.0,61.0,-100.00,West,263,6.0,11.0,54,0.00,,,0.00,883.000000,,2013-02-06 23:52:00,
2013-02-06 14:01:00,79.0,61.0,-100.00,West,263,6.0,11.0,54,0.00,,,0.00,883.000000,,2013-02-07 00:01:00,
2013-02-06 14:11:00,79.0,61.0,-100.00,West,263,6.0,11.0,54,0.00,,,0.00,883.000000,,2013-02-07 00:11:00,
2013-02-06 14:21:00,79.0,61.0,-100.00,West,263,6.0,11.0,54,0.00,,,0.00,883.000000,,2013-02-07 00:21:00,
2013-02-06 14:42:00,78.0,58.0,-100.00,West,275,6.0,9.0,50,0.00,,,0.00,820.000000,,2013-02-07 00:42:00,
2013-02-06 14:52:00,78.0,58.0,-100.00,West,275,6.0,9.0,50,0.00,,,0.00,820.000000,,2013-02-07 00:52:00,
2013-02-06 15:01:00,78.0,58.0,-100.00,West,275,6.0,9.0,50,0.00,,,0.00,820.000000,,2013-02-07 01:01:00,
2013-02-06 15:11:00,78.0,58.0,-100.00,West,275,6.0,9.0,50,0.00,,,0.00,820.000000,,2013-02-07 01:11:00,
2013-02-06 15:21:00,78.0,58.0,-100.00,West,275,6.0,9.0,50,0.00,,,0.00,820.000000,,2013-02-07 01:21:00,
2013-02-06 15:42:00,79.0,59.0,-100.00,West,259,5.0,9.0,50,0.00,,,0.00,729.000000,,2013-02-07 01:42:00,
2013-02-06 15:52:00,79.0,59.0,-100.00,West,259,5.0,9.0,50,0.00,,,0.00,729.000000,,2013-02-07 01:52:00,
2013-02-06 16:01:00,79.0,59.0,-100.00,West,259,5.0,9.0,50,0.00,,,0.00,729.000000,,2013-02-07 02:01:00,
2013-02-06 16:11:00,79.0,59.0,-100.00,West,259,5.0,9.0,50,0.00,,,0.00,729.000000,,2013-02-07 02:11:00,
2013-02-06 16:21:00,79.0,59.0,-100.00,West,259,5.0,9.0,50,0.00,,,0.00,729.000000,,2013-02-07 02:21:00,
2013-02-06 17:02:00,79.0,59.0,-100.00,West,266,6.0,11.0,50,0.00,,,0.00,555.000000,,2013-02-07 03:02:00,
2013-02-06 17:11:00,79.0,59.0,-100.00,West,266,6.0,11.0,50,0.00,,,0.00,555.000000,,2013-02-07 03:11:00,
2013-02-06 17:21:00,79.0,59.0,-100.00,West,266,6.0,11.0,50,0.00,,,0.00,555.000000,,2013-02-07 03:21:00,
2013-02-06 17:42:00,79.0,60.0,-100.00,WSW,253,5.0,9.0,52,0.00,,,0.00,358.000000,,2013-02-07 03:42:00,
2013-02-06 17:52:00,79.0,60.0,-100.00,WSW,253,5.0,9.0,52,0.00,,,0.00,358.000000,,2013-02-07 03:52:00,
2013-02-06 18:01:00,79.0,60.0,-100.00,WSW,253,5.0,9.0,52,0.00,,,0.00,358.000000,,2013-02-07 04:01:00,
2013-02-06 18:11:00,79.0,60.0,-100.00,WSW,253,5.0,9.0,52,0.00,,,0.00,358.000000,,2013-02-07 04:11:00,
2013-02-06 18:21:00,79.0,60.0,-100.00,WSW,253,5.0,9.0,52,0.00,,,0.00,358.000000,,2013-02-07 04:21:00,
2013-02-06 18:42:00,77.0,63.0,-100.00,West,259,4.0,8.0,63,0.00,,,0.00,125.000000,,2013-02-07 04:42:00,
2013-02-06 18:53:00,77.0,63.0,-100.00,West,259,4.0,8.0,63,0.00,,,0.00,125.000000,,2013-02-07 04:53:00,
2013-02-06 19:01:00,77.0,63.0,-100.00,West,259,4.0,8.0,63,0.00,,,0.00,125.000000,,2013-02-07 05:01:00,
2013-02-06 19:11:00,77.0,63.0,-100.00,West,259,4.0,8.0,63,0.00,,,0.00,125.000000,,2013-02-07 05:11:00,
2013-02-06 19:21:00,77.0,63.0,-100.00,West,259,4.0,8.0,63,0.00,,,0.00,125.000000,,2013-02-07 05:21:00,
2013-02-06 19:42:00,75.0,65.0,-100.00,West,269,3.0,7.0,70,0.00,,,0.00,5.000000,,2013-02-07 05:42:00,
2013-02-06 19:52:00,75.0,65.0,-100.00,West,269,3.0,7.0,70,0.00,,,0.00,5.000000,,2013-02-07 05:52:00,
2013-02-06 20:02:00,75.0,65.0,-100.00,West,269,3.0,7.0,70,0.00,,,0.00,5.000000,,2013-02-07 06:02:00,
2013-02-06 20:11:00,75.0,65.0,-100.00,West,269,3.0,7.0,70,0.00,,,0.00,5.000000,,2013-02-07 06:11:00,
2013-02-06 20:22:00,75.0,65.0,-100.00,West,269,3.0,7.0,70,0.00,,,0.00,5.000000,,2013-02-07 06:22:00,
2013-02-06 20:43:00,74.0,63.0,-100.00,WNW,283,3.0,8.0,69,0.00,,,0.00,0.000000,,2013-02-07 06:43:00,
2013-02-06 20:52:00,74.0,63.0,-100.00,WNW,283,3.0,8.0,69,0.00,,,0.00,0.000000,,2013-02-07 06:52:00,
2013-02-06 21:01:00,74.0,63.0,-100.00,WNW,283,3.0,8.0,69,0.00,,,0.00,0.000000,,2013-02-07 07:01:00,
2013-02-06 21:11:00,74.0,63.0,-100.00,WNW,283,3.0,8.0,69,0.00,,,0.00,0.000000,,2013-02-07 07:11:00,
2013-02-06 21:21:00,74.0,63.0,-100.00,WNW,283,3.0,8.0,69,0.00,,,0.00,0.000000,,2013-02-07 07:21:00,
2013-02-06 21:42:00,73.0,63.0,-100.00,SSW,210,1.0,3.0,71,0.00,,,0.00,0.000000,,2013-02-07 07:42:00,
2013-02-06 21:52:00,73.0,63.0,-100.00,SSW,210,1.0,3.0,71,0.00,,,0.00,0.000000,,2013-02-07 07:52:00,
2013-02-06 22:01:00,73.0,63.0,-100.00,SSW,210,1.0,3.0,71,0.00,,,0.00,0.000000,,2013-02-07 08:01:00,
2013-02-06 22:11:00,73.0,63.0,-100.00,SSW,210,1.0,3.0,71,0.00,,,0.00,0.000000,,2013-02-07 08:11:00,
2013-02-06 22:21:00,73.0,63.0,-100.00,SSW,210,1.0,3.0,71,0.00,,,0.00,0.000000,,2013-02-07 08:21:00,
2013-02-06 22:42:00,73.0,63.0,-100.00,East,80,2.0,4.0,71,0.00,,,0.00,0.000000,,2013-02-07 08:42:00,
2013-02-06 22:52:00,73.0,63.0,-100.00,East,80,2.0,4.0,71,0.00,,,0.00,0.000000,,2013-02-07 08:52:00,
2013-02-06 23:01:00,73.0,63.0,-100.00,East,80,2.0,4.0,71,0.00,,,0.00,0.000000,,2013-02-07 09:01:00,
2013-02-06 23:11:00,73.0,63.0,-100.00,East,80,2.0,4.0,71,0.00,,,0.00,0.000000,,2013-02-07 09:11:00,
2013-02-06 23:21:00,73.0,63.0,-100.00,East,80,2.0,4.0,71,0.00,,,0.00,0.000000,,2013-02-07 09:21:00,
2013-02-06 23:42:00,72.0,62.0,-100.00,ENE,74,2.0,5.0,70,0.00,,,0.00,0.000000,,2013-02-07 09:42:00,
2013-02-06 23:52:00,72.0,62.0,-100.00,ENE,74,2.0,5.0,70,0.00,,,0.00,0.000000,,2013-02-07 09:52:00,